SCP
0 0 0 0 0 0 0 0 0 0 0 0 0 0 0 0 0 0 0 0 0 0 0 0 0 0 0 0 0 0 0 0 0 0 0 0 0 0 0 0 0 0 0
0 0 0 0 0 0 0 0 0 0 0 0 0 0 0 0 0 0 0 0 0 0 0 0 0 0 0 0 0 0 0 0 0 0 0 0 0 0 0 0 0 0 0
0 0 0 0 0 0 0 0 0 0 0 0 0 0 0 0 0 0 0 0 0 0 0 0 0 0 0 0 0 0 0 0 0 0 0 0 0 0 0 0 0 0 0
0 0 0 0 0 0 0 0 0 0 0 0 0 0 0 0 0 0 0 0 0 0 0 0 0 0 0 0 0 0 0 0 0 0 0 0 0 0 0 0 0 0 0
0 0 0 0 0 0 0 0 0 0 0 0 0 0 0 0 0 0 0 0 0 0 0 0 0 0 0 0 0 0 0 0 0 0 0 0 0 0 0 0 0 0 0
0 0 0 0 0 0 0 0 0 0 0 0 0 0 0 0 0 0 0 0 0 0 0 0 0 0 0 0 0 0 0 0 0 0 0 0 0 0 0 0 0 0 0
0 0 0 0 0 0 0 0 0 0 0 0 0 0 0 0 0 0 0 0 0 0 0 0 0 0 0 0 0 0 0 0 0 0 0 0 0 0 0 0 0 0 0
0 0 0 0 0 0 0 1 1 0 0 0 0 0 0 0 0 0 0 0 0 0 0 0 0 0 0 0 0 0 0 0 0 0 0 0 0 0 0 0 0 0 0
0 0 0 0 0 0 0 1 1 0 0 0 0 0 0 0 0 0 0 0 0 0 1 1 0 0 0 0 0 0 0 0 0 0 0 0 0 0 0 0 0 0 0
0 0 0 0 0 0 0 0 0 0 0 0 0 0 0 0 0 0 0 0 0 1 1 1 1 1 1 1 0 0 0 0 0 0 0 0 0 0 0 0 0 0 0
0 0 0 0 0 0 0 0 0 0 0 0 0 0 0 0 0 0 0 0 1 1 1 1 1 1 1 1 1 0 0 0 0 0 0 0 0 1 1 1 0 0 0
0 0 0 0 0 0 0 0 0 0 0 0 0 0 0 0 0 0 0 1 1 1 1 1 1 1 1 1 1 1 1 0 0 0 0 0 0 1 1 1 1 1 1
1 1 1 0 0 0 0 0 0 0 0 0 0 0 1 1 1 1 1 1 1 1 1 1 1 1 1 1 1 1 1 1 0 0 0 0 1 1 1 1 1 1 1
2 1 1 1 1 1 1 1 1 1 1 1 1 1 1 1 1 1 1 1 1 1 1 1 1 1 1 1 1 1 1 1 1 0 0 0 1 1 1 1 1 1 1
2 2 2 2 1 1 1 1 1 1 1 1 1 1 1 1 1 1 1 1 1 1 1 1 1 1 1 1 1 1 1 1 1 0 0 0 1 1 1 1 1 1 1
2 2 2 2 1 1 1 1 1 1 1 1 1 1 1 1 1 1 1 1 1 1 1 1 1 1 1 1 1 1 1 1 1 1 0 0 0 1 1 1 1 1 1
1 1 1 1 1 1 1 1 1 1 1 1 1 1 1 1 1 1 1 1 1 1 1 1 0 0 0 1 1 1 1 1 1 0 0 0 0 1 1 1 1 1 1
1 1 1 1 1 1 1 1 1 1 1 1 1 1 1 1 0 0 0 0 0 0 0 0 0 0 0 0 0 0 0 0 1 0 0 0 0 1 1 1 1 1 1
0 0 0 0 0 0 0 0 0 0 0 0 0 0 0 0 0 0 0 0 0 0 0 0 0 0 0 0 0 0 0 0 0 0 0 0 0 0 1 1 1 1 1
0 0 0 0 0 0 0 0 0 0 0 0 0 0 0 0 0 0 0 0 0 0 0 0 0 0 0 0 0 0 0 0 0 0 0 0 0 0 0 1 1 1 0
0 0 0 0 0 0 0 0 0 0 0 0 0 0 0 0 0 0 0 0 0 0 0 0 0 0 0 0 0 0 0 0 0 0 0 0 0 0 0 0 0 0 0
0 0 0 0 0 0 0 0 0 0 0 0 0 0 0 0 0 0 0 0 0 0 0 0 0 0 0 0 0 0 0 0 0 0 0 0 0 0 0 0 0 0 0
0 0 0 0 0 0 0 0 0 0 0 0 0 0 0 0 0 0 0 0 0 0 0 0 0 0 0 0 0 0 0 0 0 0 0 0 0 0 0 0 0 0 0
0 0 0 0 0 0 0 0 0 0 0 0 0 0 0 0 0 0 0 0 0 0 0 0 0 0 0 0 0 0 0 0 0 0 0 0 0 0 0 0 0 0 0
0 0 0 0 0 0 0 0 0 0 0 0 0 0 0 0 0 0 0 0 0 0 0 0 0 0 0 0 0 0 0 0 0 0 0 0 0 0 0 0 0 0 0
0 0 0 0 0 0 0 0 0 0 0 0 0 0 0 0 0 0 0 0 0 0 0 0 0 0 0 0 0 0 0 0 0 0 0 0 0 0 0 0 0 0 0
Wind_Speed
9 9 16 17 17 18 18 17 16 16 16 16 16 16 16 16 16 16 15 15 14 13 13 12 12 12 12 12 13 13 14 14 15 15 15 15 14 14 15 16 15 12 17
14 12 16 16 17 17 17 17 16 16 15 15 15 15 15 15 14 14 14 14 13 13 12 12 11 11 11 12 12 12 13 13 13 14 15 13 13 13 14 15 14 10 17
16 12 14 16 16 17 17 17 16 15 15 15 14 14 14 13 13 13 12 12 12 12 12 11 11 11 11 11 11 11 11 11 12 13 12 6 8 13 15 15 16 16 16
15 10 12 16 16 16 16 16 16 15 15 14 14 13 13 13 12 12 11 11 11 11 11 11 11 10 10 9 9 9 9 10 10 11 5 4 6 14 16 16 15 15 15
11 9 12 17 16 16 16 15 15 15 14 14 14 13 12 12 12 11 11 10 10 10 11 11 10 10 9 9 8 8 8 8 8 7 4 4 5 13 16 15 15 15 15
10 8 11 17 16 16 15 15 14 14 14 13 13 12 12 12 11 11 10 10 10 10 11 11 10 10 9 9 8 7 7 7 5 2 4 6 5 13 16 15 15 15 15
10 7 10 16 16 15 15 14 14 13 13 13 12 12 11 11 11 10 10 10 10 10 11 11 11 10 10 9 8 8 7 7 4 3 5 6 7 14 16 16 15 15 15
13 8 9 15 15 15 14 14 13 12 12 12 12 11 11 11 10 10 10 10 10 10 10 11 11 11 10 10 9 9 8 7 4 3 5 6 11 15 17 16 15 15 15
12 9 7 8 10 13 14 13 12 12 11 10 10 10 10 10 10 10 10 10 11 11 11 11 12 12 11 11 11 10 10 9 3 2 4 6 13 17 18 17 16 16 15
9 8 7 6 6 6 7 12 12 12 11 11 10 10 10 10 10 11 10 10 12 12 13 13 13 13 13 13 12 12 12 9 4 3 3 6 15 18 19 19 18 17 16
8 6 6 6 6 5 5 9 10 11 11 10 9 11 9 5 5 6 10 12 14 14 15 15 15 15 14 14 14 14 11 4 4 4 4 9 16 19 20 20 19 19 18
8 7 6 6 6 5 6 4 3 4 4 5 4 5 4 4 4 7 9 15 16 17 17 17 17 15 13 6 10 13 5 5 5 5 6 12 16 20 21 21 20 20 19
7 7 6 5 5 5 3 4 2 2 2 3 4 5 4 3 3 5 3 6 9 12 9 10 11 8 7 6 6 6 6 6 5 5 7 13 16 20 21 22 22 21 21
8 7 6 5 4 4 3 3 2 2 2 2 3 4 3 2 3 3 3 3 3 3 5 5 5 7 8 8 9 9 9 7 6 6 7 14 16 20 22 22 22 22 21
8 7 6 5 4 4 3 2 2 1 1 1 1 2 2 2 2 2 2 2 3 3 3 4 5 7 8 9 10 11 10 11 10 8 6 14 17 18 21 23 23 23 22
7 6 5 5 4 4 3 3 2 2 1 2 1 1 1 1 1 1 2 2 2 2 3 4 5 6 7 7 10 11 11 10 10 10 8 9 16 18 20 21 22 22 22
6 6 5 6 5 5 4 3 2 2 2 2 1 1 2 1 1 1 1 2 2 2 3 3 4 4 5 6 9 10 9 10 9 10 9 7 8 16 20 21 21 21 22
6 6 5 6 6 5 4 3 2 2 2 1 1 1 1 1 2 1 1 2 3 2 2 3 3 3 4 5 5 6 7 7 9 9 8 8 7 8 14 20 21 21 22
5 5 5 5 5 5 5 4 3 3 2 1 0 0 0 1 1 1 1 2 2 2 2 3 3 3 4 4 5 6 6 7 7 9 10 10 9 8 8 13 21 22 23
5 5 5 5 5 4 3 3 3 4 3 2 1 1 0 0 1 1 1 2 2 2 2 3 3 3 3 4 6 6 5 5 5 7 9 9 9 11 10 10 10 15 23
4 4 4 3 3 2 2 2 2 2 3 3 2 2 1 1 1 1 1 2 1 1 3 3 3 4 3 2 2 3 4 5 6 6 7 7 9 10 10 10 8 8 9
5 5 5 4 3 2 2 1 1 1 1 1 2 3 3 3 3 3 2 2 2 2 3 3 2 2 3 2 2 2 2 3 4 7 7 8 9 8 9 12 10 10 8
6 6 6 5 4 3 2 1 1 2 2 3 3 3 4 5 5 5 4 4 3 2 2 3 2 2 3 2 2 2 1 2 3 3 6 7 8 7 8 9 11 11 11
7 6 5 5 4 3 3 2 1 1 1 3 2 3 5 5 6 5 5 4 4 3 3 3 2 2 2 3 2 2 3 2 2 3 3 4 7 8 8 9 10 10 10
5 4 4 4 3 3 3 3 2 2 2 3 3 4 5 5 5 5 4 3 3 3 4 3 3 2 2 2 2 2 2 2 3 3 4 3 3 5 6 7 7 7 9
3 3 4 4 3 2 2 2 3 3 4 3 4 4 4 3 4 5 4 3 3 3 4 4 4 4 3 3 3 2 2 2 2 2 3 3 3 3 4 5 6 7 7
Wind_Direction
148 156 149 142 137 132 130 128 124 121 118 116 115 114 114 115 116 117 119 122 123 125 124 121 117 114 112 113 114 115 116 118 119 119 117 114 114 117 120 118 115 115 117
147 152 148 143 139 136 134 133 130 128 125 123 121 120 120 121 122 123 124 126 127 128 128 126 123 120 119 120 121 122 123 124 125 123 119 115 116 123 124 120 119 124 122
141 145 145 142 139 138 137 136 135 133 131 130 129 128 129 129 130 131 133 133 134 133 134 133 130 128 128 128 129 130 129 129 128 124 117 109 114 123 127 125 125 125 125
137 136 141 140 138 138 138 139 139 139 138 137 137 138 139 140 141 142 143 143 143 143 143 142 140 138 137 138 139 140 139 140 139 133 124 130 123 126 129 130 130 130 129
129 130 143 140 138 138 138 140 143 145 145 145 146 148 149 150 152 153 154 154 155 154 153 152 150 148 150 152 154 155 154 155 156 149 153 149 132 136 137 137 137 136 135
125 128 143 140 139 139 140 143 147 150 151 151 153 156 158 160 161 163 166 168 168 167 165 164 162 162 164 166 171 176 178 178 167 140 147 151 150 148 146 146 144 143 142
127 129 140 141 141 141 143 146 150 153 156 158 160 164 167 169 171 175 178 179 180 179 177 175 175 175 177 182 188 196 201 202 181 158 161 166 168 158 155 154 153 151 151
136 135 141 145 145 145 147 149 151 155 159 164 167 171 174 178 182 186 188 191 192 190 188 188 188 188 189 193 200 209 218 222 207 180 175 176 178 166 163 162 160 159 158
137 139 139 146 149 151 152 153 156 160 165 170 175 178 183 188 193 199 199 201 201 201 201 200 200 200 201 203 208 216 226 231 226 190 187 182 186 174 170 168 168 168 167
135 143 144 144 145 149 156 162 165 170 175 181 185 189 195 201 205 209 209 212 213 211 210 210 210 209 209 211 215 220 227 235 230 216 206 197 194 183 177 176 175 175 175
140 149 151 153 153 154 162 174 174 179 186 190 195 200 203 209 216 222 224 221 223 223 220 218 216 214 214 216 220 224 228 225 225 223 215 210 201 193 185 183 182 181 182
148 158 165 161 159 164 175 165 175 191 196 199 203 213 208 205 219 230 234 234 233 232 229 226 224 221 218 216 223 225 223 218 226 231 224 219 207 203 193 189 188 187 187
146 153 152 151 153 161 159 148 174 197 199 210 216 219 218 216 229 242 240 249 244 240 235 232 227 222 218 210 212 218 221 221 225 233 232 223 212 209 202 194 192 191 191
125 131 128 124 124 130 130 145 159 181 189 203 220 219 208 214 226 235 237 243 241 234 228 228 224 219 221 218 217 219 220 223 227 228 234 234 222 213 207 200 198 195 195
102 106 117 112 108 107 105 113 106 122 145 188 217 213 198 208 235 243 247 248 246 240 236 235 233 228 225 228 228 226 224 223 226 226 234 236 227 217 211 205 203 201 200
91 93 97 89 85 83 78 76 74 78 87 84 69 61 135 165 231 267 281 279 270 254 244 241 242 241 235 230 233 232 230 225 226 225 227 236 230 219 210 207 207 206 205
85 85 91 90 72 71 60 53 63 71 80 81 81 73 85 92 59 353 322 307 296 290 278 265 253 247 245 238 237 236 235 228 223 224 227 225 229 224 213 209 210 209 210
86 78 68 78 67 61 54 43 36 39 59 69 80 81 73 63 56 32 349 317 309 308 296 280 266 256 251 242 239 241 241 232 225 225 227 226 220 220 217 213 213 213 214
92 88 76 66 63 59 51 43 39 36 34 6 9 25 40 46 61 59 343 314 318 318 304 295 290 264 262 255 247 241 236 233 227 230 230 228 222 218 213 216 218 218 218
109 102 95 80 72 65 50 39 27 21 8 353 332 281 232 330 7 32 312 322 330 320 307 301 289 276 264 263 266 261 241 232 226 226 228 230 227 222 216 215 217 223 222
126 122 121 110 101 88 65 49 30 355 340 344 329 318 291 277 282 263 273 292 306 291 285 289 286 283 276 264 266 274 260 238 231 229 225 225 226 224 218 213 211 214 221
169 166 164 162 151 135 129 135 157 219 290 314 333 332 321 311 296 284 258 258 261 269 295 299 293 288 282 274 251 268 284 279 239 227 219 220 223 219 220 219 212 211 213
192 190 183 181 168 155 139 102 40 24 360 352 341 327 312 305 300 293 276 257 248 230 250 268 274 275 284 281 247 240 244 266 293 260 226 223 216 212 217 217 213 211 209
203 192 183 176 166 162 144 130 142 168 257 263 271 286 303 307 304 297 285 266 253 240 239 254 246 244 269 287 284 254 243 245 264 298 286 237 222 217 214 216 216 210 207
194 176 167 152 155 169 168 172 179 217 238 263 285 304 308 309 312 312 301 285 267 255 250 252 264 257 238 253 267 269 264 255 235 243 278 287 259 230 214 210 208 207 204
146 141 139 144 172 195 195 200 201 229 252 279 298 305 305 307 311 317 310 298 284 274 264 256 254 258 251 252 260 257 252 250 250 245 255 276 276 263 231 214 207 204 202